Simultaneous Nadir Overpasses (SNOs) Predictions

Prediction of SNOs between GOES-17 and AQUA Satellite Orbit:

Table of predicted SNOs for the next 14.0 days since TLE Epoch: 1/25/2020
Index Date Time (GOES-17) GOES-17 Lat,Lon AQUA Lat,Lon Distance(km) Time Diff (sec)
1 01/25/2020 22:39:51 -0.04,-137.21 0.15,-136.43 89.52 80
2 01/26/2020 11:03:46 0.05,-137.21 0.95,-141.58 496.58 80
3 01/27/2020 22:27:40 -0.04,-137.21 0.76,-133.47 426.09 80
4 01/28/2020 10:51:35 0.05,-137.21 0.34,-138.62 160.07 80
5 01/30/2020 10:36:44 0.05,-137.21 -0.27,-135.66 176.04 80
6 01/30/2020 23:00:48 -0.05,-137.21 -0.82,-140.86 414.32 80
7 02/01/2020 22:48:37 -0.05,-137.20 -0.20,-137.90 78.89 80
8 02/03/2020 22:33:47 -0.06,-137.19 0.43,-134.94 255.77 80
9 02/04/2020 10:57:41 0.06,-137.18 0.69,-140.09 331.01 80
10 02/06/2020 10:42:50 0.07,-137.16 0.06,-137.13 2.48 80




NCC Satellite Simultaneous Nadir Overpasses (SNOs) Prediction Service
